Regional Weather Roundup
Issued by NWS Midland/Odessa, TX

Skip options and go directly to product.
Home | Oldest Version | Previous Version | Current Version | All | Text Only | Save Text | Print | Product List | Glossary On

Skip product version selection by date and time.   
375
ASUS44 KMAF 261810
RWRMAF
MIDLAND AREA WEATHER ROUNDUP
NATIONAL WEATHER SERVICE MIDLAND TX
1200 PM CST WED NOV 26 2014

...IN SOUTHWEST TEXAS AND SOUTHEAST NEW MEXICO...

CITY           SKY/WX    TMP DP  RH WIND       PRES   REMARKS
ALPINE         FAIR      64  15  14 SW12      30.36F
ANDREWS        FAIR      55  25  32 NE13      30.29F
ARTESIA        NOT AVBL
BIG SPRING     FAIR      56  25  29 N14       30.30S
CARLSBAD       SUNNY     59  18  20 SE5       30.27F
DRYDEN           N/A     68  10  10 SW16      30.25F
FORT STOCKTON  FAIR      67  14  13 W7        30.28F
GUAD PASS      NOT AVBL
HOBBS          SUNNY     55  19  24 N14       30.30R
MARFA          FAIR      61  16  17 W20       30.34F
MIDLAND AIRPK  FAIR      57  24  27 N9G16     30.28F
MIDLAND INTL   FAIR      59  23  25 N12       30.27S
ODESSA         FAIR      59  20  22 N15       30.28S
PECOS          FAIR      67  19  16 W7        30.27F
PRESIDIO       FAIR      58  15  18 SW3       30.34F
SEMINOLE       FAIR      53  29  39 NE12      30.30F
SNYDER         FAIR      52  32  45 N10       30.28S
WINK           FAIR      66  13  12 N9        30.26F
$$
...OTHER STATIONS IN TEXAS...

CITY           SKY/WX    TMP DP  RH WIND       PRES   REMARKS
ABILENE        FAIR      56  32  40 N10       30.25S
AMARILLO       FAIR      47  25  42 N13       30.29F
AUSTIN         FAIR      70  34  26 W13G21    30.19F
BROWNSVILLE    FAIR      71  45  39 S15       30.30F
CORPUS CHRISTI FAIR      66  44  45 SW17      30.27F
DALLAS FTW     FAIR      60  31  33 N12       30.17R
DEL RIO        FAIR      65  35  33 CALM      30.25F
EL PASO        MOSUNNY   54  11  18 SE3       30.35F
HOUSTON INT    FAIR      69  35  28 SW15      30.21F
LUBBOCK        FAIR      52  29  41 NE8       30.26F
SAN ANGELO     FAIR      64  21  19 NW12      30.23F
SAN ANTONIO    FAIR      67  34  29 SW12      30.22F
WACO           FAIR      66  28  24 NW12G18   30.18S
WICHITA FALLS  NOT AVBL
$$
...OTHER LOCATIONS IN NEW MEXICO...

CITY           SKY/WX    TMP DP  RH WIND       PRES   REMARKS
ALAMAGORDO     SUNNY     54  14  20 W7        30.35F
ALBUQUERQUE    MOSUNNY   49  14  24 S3        30.39F
CANNON AFB     SUNNY     46  27  49 E2        30.29F
CLOVIS         SUNNY     46  27  46 NE5       30.30S
HOLLOMAN AFB   SUNNY     55  14  19 NW7       30.34F
ROSWELL        SUNNY     59  20  22 CALM      30.27F
RUIDOSO        SUNNY     48  19  32 NW17G25   30.38S
SANTA FE       SUNNY     46  15  28 W9        30.35F
TRUTH OR CONSE SUNNY     53  15  22 SE3       30.37F
TUCUMCARI      SUNNY     44  26  49 VRB5      30.30F
$$

USA.gov is the U.S. government's official web portal to all federal, state and local government web resources and services.